Vertical_Velocity
1 -1 -3 -1 -1 1 -2 -5 -5 -8 -7 -11 -10 -5 -4 -5 2 2 2 2 1 2 1 1 -2 -4 -2 1 0 -1 1 2 2 -0 3 1 -1 -2 -1 -5 -7 -1 -0 -2
-0 1 0 0 -1 -2 -2 -3 -2 -0 -9 -6 -5 -2 0 -0 1 -1 1 -0 -1 -1 2 -0 -3 -4 -1 1 1 -0 -4 0 -3 -2 -4 -1 -5 -9 -4 -2 -8 -11 -0 2
-0 -0 0 -0 -3 -3 -5 -3 1 -1 -6 -0 2 8 -0 -0 2 0 5 0 2 -2 -2 -3 -3 -1 -2 -2 -1 -1 -0 -1 1 -2 1 -1 -2 -3 1 3 3 3 -4 1
-2 -0 -1 -2 -2 1 -3 -2 -4 3 2 -10 0 -6 5 0 -0 2 3 0 1 -5 -3 -4 -2 2 -3 -2 0 -0 -2 0 -1 -1 -6 -7 -5 -6 -4 -7 -3 -2 -4 -3
1 -1 1 1 -1 3 3 3 0 -6 0 -2 -6 -10 3 -2 2 2 1 1 -1 -1 -3 1 -1 -0 -1 -3 -3 2 0 -2 -4 -3 -4 -8 -3 -2 -4 -5 -1 -3 -2 -2
-3 -0 -1 0 1 2 2 -0 0 -2 -2 -4 3 -6 4 -5 -2 0 -3 -5 -4 -1 3 -2 -3 -3 -1 1 -2 -1 -3 -4 -3 -6 -5 -3 -6 -6 -3 -2 3 1 1 3
0 -0 1 1 0 1 1 0 -3 -5 -5 -3 -1 -7 -0 2 -3 -6 -5 0 2 6 1 -3 -2 2 3 1 -2 -1 -0 -1 -3 -4 -1 -5 -2 -1 -0 -3 -1 -3 -3 2
1 1 0 -1 -1 -2 0 -0 -1 -2 -5 1 -4 -6 -5 1 -1 -2 0 2 3 -2 -2 -1 1 0 2 2 -0 -4 -2 -2 0 -3 -1 2 -1 -3 -2 -1 -3 -3 -5 -4
1 4 -0 -2 1 1 3 -0 1 -1 -3 -3 3 3 -5 2 3 4 1 0 -4 -2 -1 0 -2 -2 0 -3 -3 -3 -1 -2 -3 -3 -2 -2 -3 -3 -1 -3 -2 -1 -3 -3
4 2 2 -1 0 0 -0 0 -5 -1 -5 -5 -2 0 0 -5 -5 1 -0 0 -1 -1 0 -1 -3 -1 -2 1 -1 -2 -1 -2 -1 -5 -2 -2 -2 -2 -1 1 -2 -3 -3 -3
2 -1 3 -3 -1 -1 -1 1 -1 -1 -2 -6 -5 4 4 -1 1 2 3 4 -0 0 0 -0 -2 1 0 2 -1 -0 -2 -4 -3 1 -0 -2 -1 -4 1 -2 -1 -1 -0 -1
3 -0 0 -0 -1 3 0 -1 1 -1 -1 -3 -3 11 2 -1 1 6 4 5 2 3 -1 -0 -0 3 -0 3 -1 -4 -2 1 -1 -2 -5 -1 -1 -2 -4 1 -4 0 2 0
3 1 1 1 -0 2 1 -0 -5 -2 -0 7 -7 -3 -1 -0 3 5 3 2 -0 -5 -3 1 -0 2 -2 -0 -3 -1 -2 -3 -1 -3 -1 -2 -0 -1 -1 -1 -2 1 2 -1
-1 1 1 -1 -1 0 1 2 -2 -4 -3 -1 7 -4 -4 1 0 -2 -3 -2 -3 -3 3 2 2 0 -2 -2 2 0 -3 -2 -1 -3 -1 0 2 1 -1 2 1 -0 2 1
1 2 -1 -3 -2 2 5 2 -4 -4 -3 -6 10 -7 -0 -2 1 -0 1 0 1 4 3 -2 -2 -2 -2 -3 -0 -2 -4 -4 -1 -2 -1 -1 -2 1 -1 0 0 -1 -1 1
1 -0 1 -6 1 -2 2 -1 -1 -5 -3 -1 -10 3 3 -3 1 0 2 1 1 -1 -3 1 0 -2 -3 -1 -3 -0 -1 -1 -1 -2 -1 -3 -5 -4 -1 -0 0 0 -1 -1
0 1 2 0 -0 -1 4 2 -0 -3 -3 0 2 1 4 4 1 -4 -3 -3 -4 -0 -0 -2 -6 -2 -1 0 -4 -2 -2 -0 1 1 2 -0 -2 2 -2 -2 -0 -0 -1 1
-0 2 -1 -1 1 -0 3 1 -0 -9 -3 0 4 2 -0 -2 -2 -4 -2 -2 2 1 -2 -1 0 -2 0 -0 -3 -1 -2 1 3 1 1 1 1 1 1 -3 -2 -1 1 3
-0 1 -0 -2 4 -2 -2 -0 -1 -6 1 -4 2 6 7 8 6 3 2 -1 -5 -4 -2 0 -3 -2 1 -1 -1 0 -0 -3 -0 1 0 -0 3 0 2 -0 -0 1 -1 -1
1 3 2 2 -2 -10 9 0 2 -5 1 7 -1 -2 -1 -1 1 -2 -3 -0 -1 -0 2 1 -4 -1 1 -1 1 -2 1 0 0 -1 -2 -2 2 2 3 -2 -0 2 0 -0
2 -2 0 -1 -7 -7 -8 4 -2 -3 -3 -5 0 1 1 2 1 0 -1 0 1 -2 3 -1 -4 1 0 1 -0 1 1 0 -1 1 3 -0 -0 1 1 -0 -0 -1 -2 -3
2 0 3 -3 -9 -3 7 0 -3 2 3 -0 -2 -1 1 1 0 -3 -3 -1 -1 -5 3 -3 -4 -2 -3 -1 1 -1 -4 0 -1 -2 0 0 1 -2 -1 -1 -0 -2 -3 -5
-2 4 2 -0 -14 1 0 -1 1 3 4 4 3 4 3 1 -0 -3 -2 -3 -2 -7 6 -1 1 3 -2 1 1 -0 -0 -1 -0 -0 -0 2 1 0 -1 -1 -2 -3 -2 -2
3 1 1 2 -7 2 1 -2 -2 7 4 0 5 3 4 -1 1 0 -2 2 0 -2 4 -1 -0 0 -1 0 0 1 -1 -5 0 0 1 1 -0 -1 -0 3 0 -2 -4 -2
8 1 -1 -9 1 2 2 -0 -0 2 2 -1 -0 -3 1 1 1 3 4 1 -1 -1 -2 1 1 0 -0 1 -2 -2 -2 -0 0 0 -0 -0 -1 1 2 -1 -1 -0 3 1
-2 -14 -3 7 3 -4 -3 -2 -0 -1 0 2 -5 -6 -5 -2 -3 -2 -2 -3 -3 -4 -3 -4 -2 -0 2 -3 -2 -1 -1 0 1 -0 -1 -1 -1 0 1 2 3 -0 -4 -3
Height
5903 5904 5903 5904 5903 5901 5898 5893 5891 5889 5886 5884 5882 5877 5873 5870 5868 5863 5860 5857 5854 5851 5848 5841 5833 5826 5820 5812 5804 5795 5787 5779 5768 5757 5745 5732 5720 5707 5694 5681 5668 5657 5647 5638
5901 5900 5901 5900 5898 5896 5894 5892 5889 5887 5885 5883 5879 5874 5869 5867 5865 5861 5860 5856 5851 5846 5843 5835 5827 5820 5813 5805 5797 5787 5778 5771 5760 5748 5736 5723 5711 5697 5685 5670 5655 5644 5636 5629
5896 5897 5897 5896 5893 5892 5890 5889 5888 5887 5883 5880 5877 5872 5868 5867 5863 5860 5857 5853 5847 5842 5837 5828 5821 5813 5805 5796 5788 5780 5771 5761 5750 5738 5727 5715 5701 5688 5676 5664 5650 5637 5626 5619
5893 5893 5892 5892 5889 5889 5888 5886 5885 5883 5881 5876 5872 5867 5865 5864 5860 5857 5853 5848 5841 5836 5829 5822 5814 5806 5796 5788 5780 5771 5762 5753 5741 5730 5719 5707 5694 5680 5667 5653 5640 5628 5617 5609
5889 5889 5889 5888 5887 5887 5886 5884 5881 5878 5875 5871 5866 5861 5860 5858 5854 5850 5846 5841 5836 5830 5821 5815 5806 5797 5788 5780 5772 5764 5754 5744 5733 5722 5710 5697 5684 5671 5657 5643 5630 5618 5608 5600
5883 5884 5885 5884 5884 5883 5881 5879 5876 5873 5870 5867 5863 5858 5856 5852 5847 5844 5841 5836 5829 5822 5816 5809 5800 5790 5782 5773 5763 5755 5746 5735 5724 5712 5700 5687 5674 5662 5648 5635 5623 5609 5599 5591
5879 5879 5880 5880 5879 5877 5876 5873 5870 5867 5864 5862 5858 5851 5849 5845 5840 5837 5833 5828 5823 5818 5810 5799 5791 5783 5776 5765 5756 5747 5738 5727 5715 5702 5690 5678 5665 5653 5639 5626 5615 5604 5594 5585
5873 5875 5875 5874 5874 5872 5869 5868 5866 5862 5859 5856 5851 5846 5844 5840 5835 5832 5828 5824 5819 5811 5800 5792 5785 5777 5769 5759 5750 5740 5730 5719 5706 5694 5682 5670 5657 5645 5632 5620 5607 5596 5586 5578
5868 5870 5868 5868 5868 5867 5864 5863 5860 5857 5854 5849 5847 5843 5840 5836 5833 5828 5823 5818 5811 5802 5794 5788 5779 5770 5761 5752 5743 5732 5722 5711 5699 5687 5674 5662 5649 5636 5624 5611 5599 5588 5579 5571
5861 5863 5863 5863 5862 5860 5858 5856 5853 5850 5846 5843 5841 5839 5836 5831 5827 5822 5817 5812 5806 5797 5790 5782 5772 5762 5754 5745 5734 5724 5714 5704 5691 5678 5665 5653 5640 5628 5616 5604 5593 5582 5573 5565
5854 5855 5857 5856 5856 5854 5852 5850 5847 5845 5842 5837 5834 5835 5831 5826 5821 5816 5812 5807 5800 5791 5783 5772 5763 5755 5746 5737 5727 5717 5706 5695 5682 5669 5657 5646 5632 5619 5608 5597 5587 5577 5567 5559
5847 5848 5849 5850 5849 5847 5846 5843 5841 5838 5836 5832 5827 5828 5822 5820 5816 5811 5806 5799 5790 5781 5770 5763 5755 5748 5740 5730 5719 5708 5697 5685 5673 5661 5649 5637 5625 5612 5601 5590 5580 5571 5562 5552
5840 5841 5842 5842 5843 5841 5839 5836 5834 5832 5829 5827 5821 5820 5816 5813 5808 5803 5796 5788 5778 5769 5762 5757 5749 5742 5732 5723 5712 5700 5688 5678 5666 5653 5641 5629 5618 5605 5594 5583 5574 5565 5555 5545
5833 5834 5835 5836 5836 5834 5832 5830 5827 5824 5821 5817 5818 5812 5810 5807 5801 5794 5786 5778 5771 5763 5758 5750 5742 5733 5724 5715 5704 5693 5682 5670 5657 5645 5634 5623 5611 5599 5587 5577 5567 5558 5549 5539
5827 5828 5828 5828 5828 5827 5826 5823 5820 5818 5815 5812 5811 5806 5803 5798 5793 5786 5778 5771 5764 5757 5749 5741 5734 5726 5717 5707 5696 5685 5673 5661 5649 5638 5626 5615 5603 5592 5581 5571 5561 5552 5542 5533
5819 5821 5821 5821 5821 5820 5818 5815 5812 5810 5806 5804 5801 5800 5795 5789 5783 5777 5770 5763 5756 5749 5742 5735 5727 5719 5710 5699 5688 5677 5665 5653 5642 5630 5619 5607 5596 5585 5575 5566 5555 5546 5536 5527
5812 5813 5814 5815 5813 5813 5812 5809 5806 5803 5799 5799 5796 5792 5788 5782 5773 5767 5761 5755 5748 5742 5736 5729 5721 5711 5700 5690 5679 5669 5657 5646 5634 5623 5612 5601 5590 5580 5570 5561 5550 5541 5532 5521
5804 5806 5806 5806 5805 5805 5804 5801 5799 5795 5794 5792 5789 5784 5779 5772 5765 5758 5753 5748 5741 5734 5727 5720 5712 5702 5692 5682 5671 5659 5648 5638 5627 5616 5605 5594 5584 5575 5566 5556 5547 5538 5528 5518
5796 5797 5797 5798 5797 5798 5796 5793 5790 5788 5786 5784 5781 5777 5771 5765 5758 5751 5745 5738 5731 5727 5720 5712 5703 5693 5682 5672 5661 5650 5640 5630 5620 5609 5598 5589 5580 5571 5562 5553 5544 5535 5524 5513
5787 5788 5790 5789 5789 5789 5788 5786 5783 5779 5779 5776 5772 5767 5761 5754 5748 5742 5736 5730 5725 5719 5712 5703 5693 5684 5674 5663 5653 5643 5633 5623 5614 5604 5594 5585 5576 5568 5558 5550 5542 5532 5521 5509
5779 5780 5780 5779 5780 5781 5778 5774 5773 5773 5772 5765 5761 5758 5752 5746 5740 5734 5728 5723 5717 5710 5703 5693 5684 5676 5666 5656 5645 5636 5627 5617 5608 5599 5589 5581 5573 5565 5556 5547 5539 5528 5517 5505
5769 5770 5771 5770 5770 5771 5769 5767 5766 5765 5760 5756 5752 5748 5742 5737 5731 5726 5720 5715 5710 5702 5694 5684 5676 5667 5657 5648 5638 5629 5620 5611 5602 5594 5586 5577 5569 5561 5554 5546 5537 5526 5515 5503
5761 5762 5762 5762 5762 5761 5758 5758 5757 5755 5753 5749 5743 5738 5734 5729 5724 5718 5713 5707 5700 5694 5686 5677 5667 5658 5648 5639 5630 5621 5613 5606 5597 5590 5582 5575 5567 5560 5552 5544 5535 5526 5515 5503
5751 5749 5750 5751 5753 5751 5751 5749 5747 5746 5742 5738 5734 5730 5726 5721 5716 5711 5706 5699 5692 5685 5678 5668 5658 5648 5639 5631 5622 5615 5607 5600 5593 5586 5579 5572 5565 5559 5552 5544 5536 5526 5515 5504
5739 5738 5741 5740 5741 5742 5743 5740 5738 5736 5732 5729 5726 5723 5718 5713 5709 5704 5697 5690 5683 5675 5667 5658 5649 5640 5632 5624 5617 5610 5603 5595 5589 5583 5576 5570 5564 5558 5552 5544 5536 5527 5518 5506
5730 5731 5730 5728 5729 5730 5731 5729 5726 5725 5723 5720 5716 5712 5708 5704 5699 5693 5687 5680 5673 5665 5658 5650 5642 5633 5624 5618 5611 5604 5598 5591 5586 5580 5574 5569 5564 5558 5552 5546 5538 5529 5518 5507